Regional Weather Roundup
Issued by NWS Midland/Odessa, TX

Skip options and go directly to product.
Home | Oldest Version | Previous Version | Current Version | All | Text Only | Save Text | Print | Product List | Glossary On

Skip product version selection by date and time.   
219
ASUS44 KMAF 131010
RWRMAF
MIDLAND AREA WEATHER ROUNDUP
NATIONAL WEATHER SERVICE MIDLAND TX
400 AM CST SAT FEB 13 2016

...IN SOUTHWEST TEXAS AND SOUTHEAST NEW MEXICO...

CITY           SKY/WX    TMP DP  RH WIND       PRES   REMARKS
ALPINE         CLOUDY    40  19  42 W6        30.34F WCI  36
ANDREWS        FAIR      36  29  75 E5        30.30F WCI  32
ARTESIA        CLOUDY    32  25  74 W3        30.29S
BIG SPRING     CLEAR     38  29  68 N3        30.33S
CARLSBAD       CLOUDY    36  24  62 NW3       30.27F
DRYDEN           N/A     51  33  50 N6        30.25R
FORT STOCKTON  CLOUDY    46  28  49 SE7       30.25F
GUAD PASS      CLOUDY    49  17  28 NE16      30.31F
HOBBS          CLEAR     37  28  70 E7        30.30F WCI  32
MARFA          CLOUDY    31  18  58 N7        30.31F WCI  24
MIDLAND AIRPK  CLOUDY    46  32  57 E7        30.31S
MIDLAND INTL   CLOUDY    46  32  58 E9        30.29F
ODESSA         CLOUDY    47  32  56 SE12      30.29F
PECOS          CLOUDY    41  30  66 CALM      30.26S
PRESIDIO       FAIR      55  18  23 MISG      30.23S
SEMINOLE       CLOUDY    37  29  75 E6        30.31F WCI  32
SNYDER           N/A     40  33  75 NE7       30.34S WCI  35
WINK           CLOUDY    38  29  70 NE5       30.25F WCI  34
$$
...OTHER STATIONS IN TEXAS...

CITY           SKY/WX    TMP DP  RH WIND       PRES   REMARKS
ABILENE        CLEAR     43  34  70 N5        30.34R
AMARILLO       CLEAR     32  29  88 S17       30.32F WCI  21
AUSTIN         CLEAR     48  39  71 N6        30.30R
BROWNSVILLE    PTCLDY    54  54 100 S7        30.24F
CORPUS CHRISTI FOG       52  51  97 E3        30.26R VSB 1
DALLAS FTW     PTCLDY    42  30  62 N9        30.36F WCI  37
DEL RIO        CLEAR     51  42  71 CALM      30.24F
EL PASO        PTCLDY    42  17  36 N5        30.24S WCI  39
HOUSTON INT    PTCLDY    54  50  86 CALM      30.29S
LUBBOCK        CLOUDY    35  30  82 E8        30.32F WCI  29
SAN ANGELO     CLEAR     36  29  75 CALM      30.31F
SAN ANTONIO    CLEAR     49  41  74 NW6       30.28S
WACO           CLEAR     44  34  67 N7        30.34R
WICHITA FALLS  NOT AVBL
$$
...OTHER LOCATIONS IN NEW MEXICO...

CITY           SKY/WX    TMP DP  RH WIND       PRES   REMARKS
ALAMAGORDO     CLOUDY    37   7  28 NE5       30.26S WCI  34
ALBUQUERQUE    CLOUDY    42  21  43 N10       30.29F WCI  36
CANNON AFB     CLEAR     36  26  68 SE2       30.31F
CLOVIS         CLOUDY    34  23  64 SW6       30.32F WCI  29
HOLLOMAN AFB   CLOUDY    38   7  27 NW5       30.24F WCI  35
ROSWELL        CLOUDY    37  23  56 SW5       30.28F WCI  33
RUIDOSO          N/A     43  14  31 CALM      30.37F
SANTA FE       CLOUDY    33  21  61 N10       30.31F WCI  25
TRUTH OR CONSE PTCLDY    44  10  25 NW9       30.26F WCI  39
TUCUMCARI      CLOUDY    42  26  53 W8        30.28F WCI  37
$$

USA.gov is the U.S. government's official web portal to all federal, state and local government web resources and services.